When you browse on this site, cookies collect data to enhance your experience and personalize the content and advertising you see.
Visit our Privacy Policy to learn more. By continuing to use the site, you agree to this use of cookies and data.
  • In Latvia
  • List of Countries
  • For 7 days
  • Water Temperature
  • Weather Map
  • Weather Widgets
  • user-avatar
    Login

    Hourly Weather Zhdankovskiy

    Today, 20 August, Tuesday

    Time Temperature Precipitation Wind Pressure Humidity
    00:00 +16°C° 0 mm 0 mps 743 mmHg 88%
    01:00 +15°C° 0 mm 0 mps 743 mmHg 88%
    02:00 +15°C° 0 mm 0 mps 743 mmHg 89%
    03:00 +15°C° 0 mm 0 mps 743 mmHg 89%
    04:00 +15°C° 0 mm 0 mps 744 mmHg 89%
    05:00 +15°C° 0 mm 0 mps 744 mmHg 89%
    06:00 +15°C° 0 mm 0 mps 744 mmHg 89%
    07:00 +17°C° 0 mm 0 mps 744 mmHg 83%
    08:00 +18°C° 0 mm 0 mps 745 mmHg 78%
    09:00 +20°C° 0 mm 0 mps 745 mmHg 72%
    10:00 +23°C° 0 mm 1 mps 745 mmHg 66%
    11:00 +24°C° 0 mm 1 mps 745 mmHg 61%
    12:00 +25°C° 0 mm 1 mps 745 mmHg 55%
    13:00 +26°C° 0 mm 1 mps 745 mmHg 53%
    14:00 +26°C° 0 mm 1 mps 745 mmHg 51%
    15:00 +27°C° 0 mm 1 mps 745 mmHg 49%
    16:00 +27°C° 0 mm 1 mps 745 mmHg 54%
    17:00 +26°C° 0 mm 2 mps 745 mmHg 58%
    18:00 +26°C° 0 mm 2 mps 745 mmHg 63%
    19:00 +24°C° 0 mm 2 mps 745 mmHg 67%
    20:00 +23°C° 0 mm 1 mps 745 mmHg 71%
    21:00 +21°C° 0 mm 1 mps 745 mmHg 75%
    22:00 +21°C° 0 mm 1 mps 745 mmHg 77%
    23:00 +21°C° 0 mm 1 mps 745 mmHg 79%

    Tomorrow, 21 August, Wednesday

    Time Temperature Precipitation Wind Pressure Humidity
    00:00 +20°C° 0 mm 1 mps 745 mmHg 80%
    01:00 +20°C° 0 mm 1 mps 745 mmHg 82%
    02:00 +20°C° 0 mm 1 mps 745 mmHg 83%
    03:00 +19°C° 0 mm 1 mps 745 mmHg 85%
    04:00 +19°C° 0 mm 1 mps 745 mmHg 87%
    05:00 +19°C° 0 mm 1 mps 745 mmHg 88%
    06:00 +18°C° 0 mm 2 mps 745 mmHg 90%
    07:00 +20°C° 0 mm 2 mps 745 mmHg 86%
    08:00 +21°C° 0 mm 2 mps 746 mmHg 81%
    09:00 +24°C° 0 mm 2 mps 746 mmHg 77%
    10:00 +25°C° 0 mm 2 mps 746 mmHg 73%
    11:00 +26°C° 0 mm 2 mps 746 mmHg 69%
    12:00 +27°C° 0 mm 2 mps 746 mmHg 66%
    13:00 +27°C° 0 mm 2 mps 746 mmHg 64%
    14:00 +28°C° 0 mm 2 mps 745 mmHg 62%
    15:00 +28°C° 0 mm 2 mps 745 mmHg 60%
    16:00 +28°C° 0 mm 2 mps 745 mmHg 63%
    17:00 +27°C° 0 mm 2 mps 745 mmHg 67%
    18:00 +27°C° 0 mm 2 mps 744 mmHg 70%
    19:00 +26°C° 0 mm 2 mps 744 mmHg 74%
    20:00 +24°C° 0 mm 1 mps 744 mmHg 78%
    21:00 +23°C° 0 mm 1 mps 744 mmHg 82%
    22:00 +22°C° 0 mm 1 mps 744 mmHg 84%
    23:00 +22°C° 0 mm 1 mps 744 mmHg 85%

    Day after tomorrow, 22 August, Thursday

    Time Temperature Precipitation Wind Pressure Humidity
    00:00 +21°C° 0 mm 1 mps 744 mmHg 86%
    01:00 +21°C° 0 mm 1 mps 744 mmHg 87%
    02:00 +21°C° 0 mm 1 mps 744 mmHg 89%
    03:00 +20°C° 0 mm 1 mps 744 mmHg 90%
    04:00 +20°C° 0 mm 1 mps 744 mmHg 90%
    05:00 +20°C° 0 mm 1 mps 744 mmHg 90%
    06:00 +20°C° 0 mm 1 mps 743 mmHg 90%
    07:00 +22°C° 0 mm 1 mps 744 mmHg 84%
    08:00 +23°C° 0 mm 1 mps 744 mmHg 78%
    09:00 +25°C° 0 mm 1 mps 744 mmHg 72%
    10:00 +26°C° 0 mm 1 mps 744 mmHg 69%
    11:00 +27°C° 0 mm 1 mps 744 mmHg 65%
    12:00 +28°C° 0 mm 1 mps 743 mmHg 61%
    13:00 +28°C° 0.4 mm 1 mps 743 mmHg 61%
    14:00 +28°C° 0.4 mm 1 mps 743 mmHg 60%
    15:00 +28°C° 0.4 mm 1 mps 743 mmHg 60%
    16:00 +28°C° 0.4 mm 1 mps 743 mmHg 65%
    17:00 +27°C° 0.4 mm 1 mps 743 mmHg 69%
    18:00 +26°C° 0.4 mm 1 mps 743 mmHg 74%
    19:00 +25°C° 0.6 mm 3 mps 743 mmHg 79%
    20:00 +22°C° 0.6 mm 4 mps 743 mmHg 85%
    21:00 +20°C° 0.6 mm 5 mps 744 mmHg 90%
    22:00 +20°C° 0.1 mm 5 mps 744 mmHg 91%
    23:00 +19°C° 0.1 mm 5 mps 744 mmHg 92%

    23 August, Friday

    Time Temperature Precipitation Wind Pressure Humidity
    00:00 +17°C° 0.1 mm 5 mps 744 mmHg 93%
    01:00 +17°C° 0 mm 5 mps 744 mmHg 93%
    02:00 +16°C° 0 mm 5 mps 745 mmHg 93%
    03:00 +16°C° 0 mm 5 mps 745 mmHg 92%
    04:00 +15°C° 0 mm 5 mps 745 mmHg 92%
    05:00 +15°C° 0 mm 4 mps 745 mmHg 92%
    06:00 +15°C° 0 mm 4 mps 745 mmHg 92%
    07:00 +15°C° 0.1 mm 4 mps 745 mmHg 89%
    08:00 +16°C° 0.1 mm 5 mps 745 mmHg 87%
    09:00 +16°C° 0.1 mm 5 mps 745 mmHg 84%
    10:00 +17°C° 0.1 mm 5 mps 745 mmHg 81%
    11:00 +19°C° 0.1 mm 5 mps 745 mmHg 77%
    12:00 +20°C° 0.1 mm 5 mps 745 mmHg 73%
    13:00 +20°C° 0.1 mm 5 mps 745 mmHg 71%
    14:00 +21°C° 0.1 mm 5 mps 745 mmHg 68%
    15:00 +21°C° 0.1 mm 5 mps 745 mmHg 66%
    16:00 +20°C° 0 mm 4 mps 745 mmHg 69%
    17:00 +20°C° 0 mm 4 mps 745 mmHg 71%
    18:00 +19°C° 0 mm 4 mps 745 mmHg 74%
    19:00 +18°C° 0 mm 3 mps 745 mmHg 76%
    20:00 +17°C° 0 mm 3 mps 745 mmHg 78%
    21:00 +16°C° 0 mm 3 mps 745 mmHg 81%
    22:00 +16°C° 0 mm 3 mps 746 mmHg 81%
    23:00 +14°C° 0 mm 3 mps 746 mmHg 80%

    24 August, Saturday

    Time Temperature Precipitation Wind Pressure Humidity
    00:00 +14°C° 0 mm 3 mps 746 mmHg 80%
    01:00 +13°C° 0 mm 3 mps 746 mmHg 81%
    02:00 +13°C° 0 mm 3 mps 746 mmHg 82%
    03:00 +12°C° 0 mm 3 mps 746 mmHg 83%
    04:00 +12°C° 0 mm 3 mps 746 mmHg 84%
    05:00 +13°C° 0 mm 2 mps 746 mmHg 85%
    06:00 +13°C° 0 mm 2 mps 746 mmHg 86%
    07:00 +15°C° 0 mm 2 mps 746 mmHg 82%
    08:00 +16°C° 0 mm 3 mps 746 mmHg 77%
    09:00 +18°C° 0 mm 3 mps 747 mmHg 72%
    10:00 +19°C° 0 mm 3 mps 747 mmHg 67%
    11:00 +20°C° 0 mm 3 mps 747 mmHg 62%
    12:00 +21°C° 0 mm 3 mps 747 mmHg 57%
    13:00 +22°C° 0 mm 3 mps 747 mmHg 54%
    14:00 +22°C° 0 mm 3 mps 747 mmHg 52%
    15:00 +22°C° 0 mm 3 mps 747 mmHg 50%
    16:00 +22°C° 0 mm 3 mps 746 mmHg 54%
    17:00 +21°C° 0 mm 2 mps 746 mmHg 59%
    18:00 +21°C° 0 mm 2 mps 746 mmHg 63%
    19:00 +19°C° 0 mm 2 mps 746 mmHg 65%
    20:00 +19°C° 0 mm 1 mps 746 mmHg 67%
    21:00 +16°C° 0 mm 1 mps 746 mmHg 69%
    22:00 +16°C° 0 mm 1 mps 746 mmHg 70%
    23:00 +16°C° 0 mm 1 mps 746 mmHg 72%

    25 August, Sunday

    Time Temperature Precipitation Wind Pressure Humidity
    00:00 +15°C° 0 mm 1 mps 746 mmHg 73%
    01:00 +15°C° 0 mm 2 mps 746 mmHg 75%
    02:00 +15°C° 0 mm 2 mps 746 mmHg 78%
    03:00 +14°C° 0 mm 2 mps 746 mmHg 80%
    04:00 +14°C° 0 mm 2 mps 746 mmHg 82%
    05:00 +14°C° 0 mm 2 mps 746 mmHg 84%
    06:00 +14°C° 0 mm 2 mps 746 mmHg 86%
    07:00 +15°C° 0 mm 2 mps 746 mmHg 81%
    08:00 +17°C° 0 mm 3 mps 746 mmHg 77%
    09:00 +19°C° 0 mm 3 mps 746 mmHg 73%
    10:00 +20°C° 0 mm 3 mps 746 mmHg 68%
    11:00 +21°C° 0 mm 3 mps 746 mmHg 64%
    12:00 +22°C° 0 mm 4 mps 746 mmHg 60%
    13:00 +23°C° 0 mm 4 mps 745 mmHg 59%
    14:00 +23°C° 0 mm 4 mps 745 mmHg 58%
    15:00 +23°C° 0 mm 4 mps 745 mmHg 57%
    16:00 +24°C° 0 mm 3 mps 745 mmHg 61%
    17:00 +22°C° 0 mm 3 mps 745 mmHg 65%
    18:00 +23°C° 0 mm 2 mps 744 mmHg 69%
    19:00 +21°C° 0 mm 2 mps 744 mmHg 74%
    20:00 +19°C° 0 mm 2 mps 745 mmHg 78%
    21:00 +18°C° 0 mm 2 mps 745 mmHg 82%
    22:00 +17°C° 0 mm 2 mps 745 mmHg 84%
    23:00 +17°C° 0 mm 2 mps 745 mmHg 86%
    Show more